Regional Weather Roundup
Issued by NWS

Home | Current Version | Previous Version | Text Only | Print | Product List | Glossary Off
Versions: 1 2 3 4 5 6 7 8 9 10 11 12 13 14 15 16 17 18 19 20 21 22 23 24 25 26 27 28 29 30 31 32 33 34 35 36 37 38 39 40 41 42 43 44 45 46 47 48 49 50

277
ASUS43 KFSD 140410
RWRSD

WEATHER ROUNDUP FOR SOUTH DAKOTA
NATIONAL WEATHER SERVICE SIOUX FALLS SD
1000 PM CST SAT FEB 13 2016

NOTE: "FAIR" INDICATES FEW OR NO CLOUDS BELOW 12,000 FEET WITH NO
SIGNIFICANT WEATHER AND/OR OBSTRUCTIONS TO VISIBILITY.


SDZ001>005-009-010-012>017-140500-
NORTHWEST AND NORTH CENTRAL SOUTH DAKOTA

CITY           SKY/WX    TMP DP  RH WIND       PRES   REMARKS
BUFFALO          N/A     37  33  85 W18       29.77R
FAITH            N/A     32  29  88 W8        29.81F WCI  25
MOBRIDGE       SNOW      20  17  88 SE12      29.84F VSB 1/2 WCI   8
$$

SDZ012>016-024>037-041>051-057-063-072>074-140500-
SOUTHWEST AND SOUTH CENTRAL SOUTH DAKOTA

CITY           SKY/WX    TMP DP  RH WIND       PRES   REMARKS
RAPID CTY ARPT CLOUDY    38  32  79 NW16      29.86R
PIERRE         CLOUDY    25  24  96 SE10      29.85R WCI  15
CUSTER         CLOUDY    33  22  63 NW21G33   29.87R WCI  21
ELLSWORTH AFB  CLOUDY    39  33  78 NW25G35   29.84R
PHILIP         RAIN      33  32  96 NW9       29.84F FOG     WCI  25
PINE RIDGE     CLOUDY    36  32  85 NW10      29.92R
SPEARFISH      MIX PCPN  36  30  80 W21G35    29.91R
WINNER         CLOUDY    29  21  72 S21G28    29.84F WCI  16
$$

SDZ004>011-016>023-039-040-140500-
NORTHEAST SOUTH DAKOTA

CITY           SKY/WX    TMP DP  RH WIND       PRES   REMARKS
ABERDEEN       LGT SNOW  15  10  80 S22G30    30.03F WCI  -3
WATERTOWN      LGT SNOW  11   6  81 SE18      30.04R WCI  -7
BROOKINGS      LGT SNOW  10   6  84 SE22G28   30.06F FOG     WCI -10
SISSETON         N/A     11   4  73 S17       30.12S WCI  -6
$$

SDZ017-020-022-023-036>040-048>070-140500-
SOUTHEAST SOUTH DAKOTA

CITY           SKY/WX    TMP DP  RH WIND       PRES   REMARKS
SIOUX FALLS    CLOUDY    13   6  74 SE16      30.10F WCI  -3
HURON          CLOUDY    14   7  73 S18G31    30.07R WCI  -3
CHAMBERLAIN    CLOUDY    22  15  74 SE16      29.88F WCI   8
MITCHELL       CLOUDY    14   8  77 SE21G33   30.00F WCI  -4
YANKTON        CLOUDY    16   7  67 SE22      30.07F WCI  -2
$$

ABBREVIATIONS USED IN REMARKS
   TC - TEMPERATURE IN CELSIUS
  WCI - WIND CHILL INDEX
   HX - HEAT INDEX
  VSB - VISIBILITY





USA.gov is the U.S. government's official web portal to all federal, state and local government web resources and services.